Location: Dumpton Point
(51.3500°N, 1.4433°E)
Time: 17:45:33
(UTC+00:00)

STARLINK-1238 - Pass Details

Date: 09 April 2020
Orbit: 549 x 550 km, 53.0° (Epoch: 29 May)

Event Time Altitude Azimuth Distance (km) Brightness Sun altitude
Rises 19:56:10 0° 289° (WNW) 2,735 9.1 -11.7°
Reaches altitude 10° 19:58:37 10° 278° (W) 1,837 7.5 -12.0°
Maximum altitude 20:02:13 28° 218° (SW) 1,050 5.1 -12.5°
Enters shadow 20:05:19 13° 162° (SSE) 1,672 5.6 -12.9°
